SCP
1 1 2 2 3 3 3 2 2 2 1 1 1 1 1 1 1 1 1 1 1 1 1 1 1 1 1 1 1 2 2 2 2 2 2 1 1 1 1 1 1 1 1
1 1 1 2 3 3 3 3 2 2 2 2 2 1 1 1 1 1 1 1 1 1 2 2 1 1 1 1 1 2 2 2 3 3 3 2 1 1 1 1 1 1 1
1 1 1 2 3 3 3 3 2 2 2 3 3 2 2 2 1 1 1 1 1 2 2 2 2 2 1 1 1 2 2 3 3 3 3 2 2 2 1 1 1 1 1
2 2 1 2 2 3 3 3 3 3 3 4 4 4 3 2 2 2 1 1 1 2 2 3 2 2 2 2 2 2 2 3 3 3 3 3 3 2 1 1 1 1 1
2 2 2 1 2 3 3 4 4 4 4 4 4 4 3 3 2 2 2 1 1 2 2 3 3 3 2 2 2 2 2 3 3 3 3 3 3 2 2 1 1 1 1
5 5 5 5 6 7 7 7 7 7 6 5 5 4 4 3 3 2 2 2 2 2 2 3 3 3 3 3 3 3 3 3 4 3 3 3 3 2 2 1 1 1 1
11 11 10 11 12 13 13 12 11 10 8 6 5 4 4 4 4 3 3 3 3 3 3 3 3 3 3 3 4 4 4 4 3 3 2 2 2 2 2 2 1 1 1
16 15 14 13 14 14 14 12 11 9 7 5 4 4 4 4 4 4 3 3 3 4 4 4 4 4 4 4 4 4 4 4 3 3 2 2 2 3 3 2 2 2 1
15 14 13 11 11 10 9 9 7 6 5 4 4 4 3 3 3 3 3 3 3 3 4 4 4 4 4 5 5 5 4 4 3 3 3 3 4 4 4 4 3 3 3
11 11 11 11 10 9 7 6 5 5 5 5 5 4 3 2 2 2 2 2 3 3 3 3 3 4 5 5 5 5 4 4 4 4 4 5 6 6 7 6 6 5 4
7 8 8 9 10 9 8 7 6 6 7 7 6 5 3 2 2 2 2 2 2 2 3 2 2 3 5 5 5 5 4 4 4 5 5 6 7 8 9 9 8 7 6
6 6 6 7 8 8 8 8 8 8 8 7 5 4 3 2 2 2 2 2 1 2 2 2 2 3 5 5 5 4 4 4 5 5 6 7 8 9 10 10 10 9 8
7 7 6 5 5 6 6 7 8 8 7 5 4 3 3 3 3 3 2 2 1 2 2 2 2 3 4 4 4 4 4 4 5 5 6 7 8 9 10 11 11 10 9
8 8 6 4 5 5 5 5 5 6 6 5 5 4 3 4 4 3 2 2 2 2 2 2 2 3 3 3 3 3 3 3 4 4 5 6 6 7 8 9 9 9 8
8 8 6 4 4 4 5 5 5 6 7 7 6 5 4 4 4 3 3 2 2 2 2 2 2 2 2 2 3 2 2 2 2 3 3 4 5 5 5 6 7 7 7
6 6 5 4 4 5 6 7 7 8 9 9 8 6 5 5 4 4 3 3 2 3 3 2 1 1 1 2 2 2 1 1 1 1 2 2 2 3 3 3 4 4 5
4 4 4 5 7 9 11 11 11 12 12 11 9 7 6 5 4 4 3 3 3 3 3 2 1 1 1 1 1 1 1 0 0 0 1 1 1 1 2 2 2 3 3
7 7 8 11 14 16 16 14 13 13 13 11 9 8 6 5 5 4 3 3 3 3 3 2 1 1 1 1 1 1 0 0 0 0 0 1 1 1 1 2 2 2 2
11 13 15 16 19 20 17 14 13 14 14 12 10 9 7 6 6 5 4 3 3 2 2 1 1 1 1 1 1 1 1 1 1 0 0 1 1 1 1 1 2 2 2
13 14 15 13 13 14 12 11 12 15 16 15 12 9 8 7 7 6 5 4 3 2 2 1 1 1 1 1 1 1 1 1 1 1 0 0 0 0 0 1 1 1 1
12 12 10 7 6 6 7 9 13 17 19 17 12 9 7 7 7 7 6 5 4 3 3 2 1 1 1 0 1 1 1 1 1 1 0 0 0 0 0 0 0 1 1
13 11 9 7 5 5 6 10 15 18 19 16 11 8 7 7 7 8 7 6 5 5 4 3 3 2 1 0 0 1 1 1 1 1 0 0 0 0 0 0 0 0 0
14 12 10 8 6 5 6 9 14 17 17 14 10 7 7 7 7 8 8 7 6 6 5 5 4 3 2 1 0 1 1 1 0 0 0 0 0 0 0 0 0 0 0
12 11 10 8 7 6 7 9 12 14 13 11 9 8 8 8 8 8 8 7 7 6 6 6 6 5 3 2 1 1 0 0 0 0 0 0 0 0 0 0 0 0 0
9 9 9 8 8 8 8 9 11 11 10 9 9 10 10 9 9 8 7 6 5 5 6 6 7 6 4 3 2 1 0 0 0 0 0 0 0 0 0 0 0 1 1
8 8 8 7 7 9 9 10 10 11 10 10 10 10 11 10 10 8 6 4 4 4 5 6 6 6 4 3 1 1 0 0 0 0 0 0 0 0 0 0 1 1 1
Wind_Speed
8 9 10 10 8 7 7 6 6 5 4 3 3 2 2 1 1 2 3 3 3 3 3 3 3 3 3 3 3 3 3 2 2 3 2 2 2 1 1 1 1 2 2
8 9 9 9 9 8 7 7 6 6 5 4 3 2 3 2 2 1 2 3 3 3 4 4 3 3 3 3 3 3 2 1 2 3 2 1 2 3 2 1 1 1 1
12 11 10 10 9 9 9 8 7 6 5 4 3 2 2 2 2 1 1 1 3 3 3 4 3 3 3 3 3 4 4 3 1 2 4 3 2 0 2 1 1 1 1
11 11 11 11 11 10 9 7 7 6 5 5 4 4 3 3 2 2 1 1 2 3 3 3 4 3 3 3 3 3 3 4 2 1 1 3 4 3 1 2 1 0 1
12 12 13 12 11 10 9 8 7 6 5 5 5 5 3 3 2 2 2 1 1 1 2 2 2 3 2 3 3 3 3 3 3 2 1 1 1 2 3 1 1 1 1
11 11 11 10 9 8 8 7 7 6 6 6 6 6 6 4 4 3 2 1 1 1 1 3 2 2 2 3 3 2 3 2 2 2 2 2 2 2 3 3 2 1 1
10 10 11 10 10 10 9 8 9 7 6 6 6 6 6 5 5 4 3 3 1 1 2 2 2 2 2 3 3 2 2 2 2 2 2 2 2 2 3 3 2 1 1
10 11 12 12 12 11 10 9 9 8 7 6 5 5 5 4 3 4 3 3 2 2 2 3 3 3 3 3 3 2 2 2 2 2 2 1 1 2 3 4 4 2 1
10 11 11 11 12 12 11 11 10 8 7 7 6 5 4 4 4 3 3 2 2 2 2 3 3 2 2 2 3 2 2 2 2 1 1 1 1 2 2 3 4 4 3
9 9 10 11 11 11 10 10 10 9 8 7 6 5 5 4 4 4 3 3 3 2 3 2 3 2 2 2 2 2 2 2 1 1 1 1 1 1 1 2 2 3 4
9 9 9 10 10 10 9 9 9 8 8 8 6 6 5 5 4 4 4 4 3 3 3 3 3 3 2 2 2 2 2 2 1 1 1 1 1 1 1 1 1 2 2
8 8 9 9 9 9 9 9 9 9 9 8 6 6 5 5 4 4 4 4 4 3 3 3 3 3 3 3 3 2 2 2 2 1 1 1 1 1 1 1 1 1 2
6 6 8 9 10 9 9 9 9 9 8 8 7 6 5 5 5 4 3 3 4 3 3 4 4 3 3 3 2 2 2 2 2 2 2 1 2 1 1 1 1 1 1
8 8 8 8 9 9 9 9 8 8 8 8 8 7 7 6 6 5 4 4 4 4 4 4 4 3 3 3 3 2 2 2 1 1 1 1 2 2 2 2 2 2 2
7 8 8 8 8 8 8 8 8 8 8 8 8 7 6 5 5 5 4 4 4 4 4 4 3 3 3 3 3 3 3 2 1 0 1 1 2 2 2 2 2 3 2
8 8 8 8 9 9 9 8 8 8 8 8 8 6 6 6 5 5 4 4 3 3 3 3 3 3 2 4 5 4 3 2 2 1 0 1 1 1 1 2 3 4 4
8 8 8 8 8 9 9 9 9 8 8 7 7 6 7 6 6 6 5 5 4 3 3 3 3 3 3 5 6 5 3 2 2 2 1 1 1 1 1 1 0 1 3
7 7 6 6 5 6 6 7 7 7 7 7 7 7 7 7 6 6 5 4 3 3 3 3 3 3 3 6 6 5 3 2 2 2 2 2 1 1 1 1 1 1 1
6 6 5 5 5 6 7 8 7 7 7 7 7 7 7 7 7 6 6 5 4 4 3 3 3 3 3 5 5 4 2 2 2 1 2 3 2 2 2 2 1 1 2
4 4 4 4 5 5 6 7 7 7 7 7 7 7 7 8 8 8 6 4 4 4 4 3 3 4 3 4 5 5 3 2 1 1 1 3 3 3 3 3 2 2 3
4 5 5 5 4 5 7 7 6 7 7 6 6 6 6 7 7 6 5 5 4 4 3 3 3 3 3 4 5 5 3 3 2 2 2 2 4 3 4 4 4 5 3
5 5 5 3 3 4 6 6 6 6 5 5 5 5 5 6 5 6 5 5 5 4 3 3 2 2 2 4 4 5 5 5 3 3 2 2 3 4 3 3 3 4 2
4 4 4 4 3 3 4 5 3 3 5 5 5 5 5 4 5 6 6 5 5 4 4 3 3 3 2 3 5 5 5 6 3 3 4 3 3 3 2 3 3 2 1
3 3 4 4 2 2 2 2 2 3 5 5 5 4 5 4 4 4 5 5 5 5 4 4 4 3 2 2 2 2 2 3 2 2 3 3 2 2 2 2 2 2 2
3 3 3 3 1 1 1 1 2 3 3 4 4 4 4 4 4 3 3 5 5 6 6 5 5 5 5 6 7 5 4 4 3 2 1 0 0 1 1 2 2 2 2
3 3 2 2 1 2 1 1 1 2 3 3 3 4 4 3 3 3 2 0 2 4 6 6 6 5 6 7 8 8 7 6 6 4 2 2 2 3 3 3 3 3 3
Wind_Direction
176 166 164 160 155 154 153 153 150 151 140 129 132 134 139 139 128 142 147 146 149 148 142 144 139 141 145 156 148 131 127 128 128 103 64 27 33 56 49 147 142 158 184
169 168 167 164 163 163 163 161 158 157 156 157 155 154 148 147 145 135 130 142 151 155 150 143 141 143 140 142 145 144 140 159 146 131 114 52 8 6 13 54 123 153 161
178 176 173 171 167 169 173 172 169 163 160 155 136 117 91 73 73 98 119 147 146 142 142 145 147 147 148 161 162 159 155 167 193 164 147 153 190 297 356 9 59 117 131
180 178 175 174 175 178 175 168 163 162 161 151 139 139 143 153 179 177 161 156 148 143 147 145 150 154 157 164 174 167 163 160 186 209 182 167 157 153 152 340 334 305 155
180 180 179 179 178 175 171 167 161 158 156 149 150 150 157 170 169 155 145 151 143 137 144 147 154 159 163 169 175 168 158 164 177 184 171 145 143 143 149 197 287 330 296
177 176 178 174 170 170 168 165 160 162 163 161 161 164 168 167 160 163 162 168 158 139 163 152 158 166 173 173 177 173 158 162 169 180 172 162 159 170 157 173 203 230 273
179 175 170 168 167 168 169 168 166 169 170 167 169 172 173 171 173 176 174 173 174 180 200 173 168 179 194 183 172 168 162 162 170 181 184 180 185 166 150 150 171 196 265
182 180 175 172 171 172 171 170 172 174 173 171 173 170 167 166 172 176 173 176 181 189 185 167 174 191 190 177 165 164 168 164 183 187 171 172 188 162 162 160 155 156 284
182 181 176 174 173 174 174 173 172 172 174 174 168 166 167 165 170 170 162 167 177 175 173 161 165 174 173 162 159 160 168 164 177 184 166 180 203 176 173 166 164 162 181
176 178 176 177 177 178 175 170 173 177 174 173 174 170 173 169 166 160 164 168 171 164 153 151 150 153 153 151 144 144 153 154 174 166 147 179 202 168 169 171 173 164 167
176 176 177 175 173 170 170 171 175 174 175 177 176 172 174 172 167 168 176 172 166 159 159 158 146 138 131 127 124 129 133 145 159 168 156 189 171 152 155 158 155 158 152
172 175 172 166 165 167 171 176 177 178 180 178 172 174 172 166 167 172 173 164 163 168 163 148 138 137 131 126 131 142 134 144 154 164 144 182 157 131 152 149 160 168 161
164 166 168 167 170 173 175 176 177 179 177 172 170 171 171 170 172 171 169 164 162 157 143 136 140 141 138 134 137 144 148 152 162 163 163 187 146 163 180 168 164 172 149
166 168 170 172 173 173 176 175 178 177 174 170 170 172 176 175 174 170 166 162 154 146 142 138 142 142 137 133 134 138 138 135 140 156 164 180 173 189 186 179 169 153 134
166 175 174 175 174 171 175 176 176 175 174 169 172 179 176 167 165 166 162 152 146 149 144 135 135 140 139 145 146 152 150 138 127 138 184 188 168 169 180 178 178 162 157
172 176 173 172 174 177 177 174 174 174 166 169 177 174 165 160 160 158 150 141 139 137 132 139 145 151 158 161 165 160 153 155 157 175 249 219 156 141 137 168 184 174 171
170 174 179 180 180 179 174 173 175 168 163 167 168 166 162 158 164 161 148 151 153 141 141 155 154 161 179 174 170 169 158 167 185 184 187 198 129 102 84 73 132 193 191
170 172 174 175 174 166 160 164 156 158 162 163 164 165 164 163 165 156 156 158 155 158 161 171 174 171 192 181 175 168 157 168 193 193 182 169 165 195 156 130 55 8 276
163 163 160 161 160 162 160 152 153 162 164 168 171 171 168 165 166 168 170 169 165 167 172 173 173 173 197 188 177 160 146 165 203 213 190 176 184 212 168 138 149 309 300
129 132 129 124 136 154 151 149 161 166 176 181 179 175 171 172 176 179 176 172 169 174 164 162 175 177 191 194 179 166 157 172 198 216 217 201 200 211 186 178 187 227 257
114 114 118 122 141 148 151 159 169 184 190 177 169 169 175 180 178 173 169 164 165 160 161 170 182 184 192 197 186 173 164 174 181 199 223 235 213 211 207 197 204 222 226
77 88 98 103 122 141 147 162 185 194 171 160 166 171 178 181 172 164 166 165 163 164 172 176 186 207 198 191 197 187 183 174 171 203 217 230 229 222 219 220 226 222 213
88 86 98 98 90 121 147 160 186 166 154 156 171 176 175 180 172 170 172 169 169 177 187 187 197 216 218 211 202 193 186 179 179 204 209 214 231 233 238 244 233 209 191
81 78 84 83 83 92 105 137 145 151 157 169 178 178 178 182 177 178 179 179 182 187 191 194 203 208 207 211 209 208 202 194 190 207 222 216 232 239 255 264 252 225 211
70 77 94 101 98 83 68 83 123 132 151 172 177 179 182 181 182 186 190 191 195 194 193 199 194 191 209 219 203 188 199 199 194 161 121 50 311 282 277 269 266 253 237
83 89 95 100 92 89 76 50 86 129 143 162 180 185 183 181 178 173 168 42 194 203 203 201 196 208 213 202 195 199 201 194 170 148 172 209 221 226 231 236 246 244 237